Weather Roundup
Issued by NWS

Home | Current Version | Previous Version | Text Only | Print | Product List | Glossary On
Versions: 1 2 3 4 5 6 7 8 9 10 11 12 13 14 15 16 17 18 19 20 21 22 23 24 25 26 27 28 29 30 31 32 33 34 35 36 37 38 39 40 41 42 43 44 45 46 47 48 49 50
000
NZUS93 KARX 030010
HRRWXR

CURRENT HOURLY OBSERVATIONS ACROSS
MUCH OF THE UPPER MISSISSIPPI VALLEY
NATIONAL WEATHER SERVICE LA CROSSE WI
600 PM CST MON MAR 02 2015


...SOUTHEAST MINNESOTA...


CITY           SKY/WX    TMP DP  RH WIND       PRES   REMARKS
ROCHESTER      CLOUDY    19   9  65 S12       30.23F WCI   7
ROCHESTER/MAYO CLOUDY    20   8  58 SE8G16    30.24F WCI  10
WINONA         CLOUDY    28  10  47 S3        30.28F
AUSTIN         CLOUDY    19  10  68 S8        30.22F WCI   9
ALBERT LEA     CLOUDY    19  14  79 S12       30.21F WCI   7
DODGE CENTER   CLOUDY    19  12  73 S10       30.22F WCI   8
PRESTON        CLOUDY    19  10  67 S10       30.25F WCI   7
OWATONNA       CLOUDY    21  12  68 SE14      30.22F WCI   8
FARIBAULT      CLOUDY    21  12  68 SE8       30.22F WCI  12
$$

...ELSEWHERE IN MINNESOTA...


CITY           SKY/WX    TMP DP  RH WIND       PRES   REMARKS
MINNEAPOLIS    CLOUDY    23   7  50 S12       30.23F WCI  12
INTNL FALLS    CLEAR     25   3  38 S5        30.01F WCI  19
DULUTH         CLEAR     23   5  46 S12       30.12F WCI  12
RED WING       CLOUDY    23   5  46 S10       30.25S WCI  12
REDWOOD FALLS  CLOUDY    25  18  74 SE16      30.14F WCI  12
MANKATO        CLOUDY    23  12  63 SE16      30.19F WCI  10
FAIRMONT       CLOUDY    25  18  74 SE14      30.15F WCI  13
$$

...SOUTHWEST WISCONSIN...


CITY           SKY/WX    TMP DP  RH WIND       PRES   REMARKS
LA CROSSE      CLOUDY    27  10  49 S7        30.28F WCI  19
PRAIRIE DU CHI CLOUDY    27  13  55 SE6       30.31F WCI  20
BOSCOBEL       CLOUDY    27  13  55 VRB3      30.32F
LONE ROCK      CLOUDY    25  10  53 S6        30.32F WCI  18
PLATTEVILLE    CLOUDY    23  16  73 E9        30.30F WCI  13
FORT MC COY    CLOUDY    26   7  45 CALM      30.29F
CAMP DOUGLAS   MOCLDY    27   9  46 SE7       30.27F WCI  19
VIROQUA        CLOUDY    25  14  62 S9        30.25F WCI  16
WIS DELLS      CLOUDY    26   9  48 CALM      30.29F
$$

...ELSEWHERE IN WISCONSIN...


CITY           SKY/WX    TMP DP  RH WIND       PRES   REMARKS
MILWAUKEE      MOCLDY    26   9  48 S8        30.37F WCI  18
MADISON        CLOUDY    26  11  52 S8        30.32F WCI  18
GREEN BAY      CLEAR     24  13  62 S7        30.34F WCI  16
EAU CLAIRE     PTCLDY    24   5  44 SE6       30.24F WCI  17
BLACK RVR FLS  FAIR      27   5  38 S3        30.26F
MEDFORD        CLEAR     18   4  53 CALM      30.22F
WAUSAU         CLEAR     21   0  39 CALM      30.24F
WIS RAPIDS     PTCLDY    25   1  35 S5        30.29F WCI  19
MARSHFIELD     PTCLDY    22   6  50 SE5       30.25F WCI  16
RICE LAKE      FAIR      21   6  52 SE7       30.23F WCI  13
$$

...NORTHEAST IOWA...


CITY           SKY/WX    TMP DP  RH WIND       PRES   REMARKS
DECORAH        CLOUDY    23  12  63 VRB5      30.27F WCI  17
MASON CITY     CLOUDY    21  14  74 SE13      30.24F WCI   9
CHARLES CITY   CLOUDY    21  16  79 SE9       30.26F WCI  11
OELWEIN        CLOUDY    23  16  74 SE9       30.29F WCI  13
$$

...ELSEWHERE IN IOWA...


CITY           SKY/WX    TMP DP  RH WIND       PRES   REMARKS
DES MOINES     CLOUDY    32  17  54 E10       30.22F WCI  24
IOWA CITY      CLOUDY    26  18  71 SE6       30.35F WCI  19
FORT DODGE     CLOUDY    27  16  63 SE9       30.20F WCI  17
$$

...NORTHERN ILLINOIS...


CITY           SKY/WX    TMP DP  RH WIND       PRES   REMARKS
CHICAGO-OHARE  CLOUDY    28  19  69 SE9       30.36F WCI  19
CHICAGO-MIDWAY CLOUDY    30  16  56 S8        30.38F WCI  22
MOLINE         CLOUDY    27  17  66 SE6       30.35F WCI  20
ROCKFORD       CLOUDY    25  15  66 S10       30.37F WCI  15
PEORIA         CLOUDY    29  18  63 S7        30.39R WCI  22
$$

NOTE: "FAIR" INDICATES FEW OR NO CLOUDS BELOW 12,000 FEET WITH NO
SIGNIFICANT WEATHER AND/OR OBSTRUCTIONS TO VISIBILITY. WIND
SPEEDS ARE IN MILES-PER-HOUR.



USA.gov is the U.S. government's official web portal to all federal, state and local government web resources and services.